Location: Utrecht
(52.0907°N, 5.1214°E)
Time: 10:22:03
(UTC+02:00)

MOZHAYETS 4 - Pass Details

Date: 05 July 2022
Orbit: 660 x 678 km, 98.2° (Epoch: 17 August)

Event Time Altitude Azimuth Distance (km) Brightness Sun altitude
Exits shadow 03:33:35 - 156° (SSE) 2,671 10.4 -11.4°
Reaches altitude 10° 03:34:58 10° 155° (SSE) 2,106 9.9 -11.3°
Maximum altitude 03:39:33 71° 72° (ENE) 714 8.0 -11.0°
Drops below altitude 10° 03:44:09 10° 349° (N) 2,110 11.1 -10.6°
Sets 03:46:23 0° 347° (NNW) 3,026 11.9 -10.5°
